Location: Roanoke
(37.2710°N, 79.9420°W)
Time: 15:23:06
(UTC-04:00)

Cosmos 1441 Rocket - Visible Passes

Search period start: 20 June 2018 00:00
Search period end: 30 June 2018 00:00
Orbit: 498 x 542 km, 81.1° (Epoch: 20 June)

Date Brightness Start Highest point End Pass type
(mag) Time Alt. Az. Time Alt. Az. Time Alt. Az.
20 Jun 5.1 00:32:05 10° N 00:34:02 26° NNE 00:34:02 26° NNE visible
21 Jun 5.1 00:18:26 10° N 00:20:24 25° NNE 00:20:24 25° NNE visible
22 Jun 5.1 00:04:48 10° NNE 00:06:47 23° NE 00:06:47 23° NE visible
22 Jun 5.1 23:51:12 10° NNE 23:53:10 22° NE 23:53:10 22° NE visible
23 Jun 6.0 01:27:51 10° NW 01:28:16 11° WNW 01:28:16 11° WNW visible
23 Jun 5.2 23:37:37 10° NNE 23:39:35 20° NE 23:39:35 20° NE visible
24 Jun 5.9 01:13:51 10° NW 01:14:40 13° WNW 01:14:40 13° WNW visible
24 Jun 5.2 23:24:05 10° NNE 23:26:00 18° NE 23:26:00 18° NE visible
25 Jun 5.7 00:59:54 10° NW 01:01:05 16° WNW 01:01:05 16° WNW visible
25 Jun 5.3 23:10:34 10° NNE 23:12:26 16° ENE 23:12:26 16° ENE visible
26 Jun 5.6 00:45:59 10° NW 00:47:31 18° WNW 00:47:31 18° WNW visible
26 Jun 5.3 22:57:07 10° NE 22:58:52 15° ENE 22:58:52 15° ENE visible
27 Jun 5.3 00:32:07 10° NNW 00:33:58 22° WNW 00:33:58 22° WNW visible
27 Jun 5.4 22:43:46 10° NE 22:45:20 13° ENE 22:45:20 13° ENE visible
28 Jun 5.1 00:18:16 10° NNW 00:20:26 26° WNW 00:20:26 26° WNW visible
28 Jun 5.5 22:30:36 10° NE 22:31:47 11° ENE 22:31:49 11° ENE visible
29 Jun 4.8 00:04:26 10° NNW 00:06:55 31° WNW 00:06:55 31° WNW visible
29 Jun 4.4 23:50:37 10° NNW 23:53:24 38° WNW 23:53:24 38° WNW visible
